Torna al catalogo

STARLINK-32632

AttivoComunicazioniVLEO
NORAD 62262·PAYLOAD·🇺🇸 United States

Lanciato Dec 5, 2024 da Vandenberg Space Force Base

Loading…

Prossimi Passaggi (prossime 24 ore)

TLE

AggiornatoSource: CelesTrak SupGP

Epoca: Sep 14, 2026, 21:03 UTC

1 62262C 24231V   26257.87756944  .00048488  00000+0  15594-2 0  2576
2 62262  53.1598  59.9089 0001115  71.2301  65.9996 15.31675609    11

Traccia STARLINK-32632 in tempo reale con AllMySat

Download on the App Store